Showing default

KINEIS-4A, 63303

Orbit data source: Space-Track

KINEIS-4A, 63303 is a French payload satellite in SSO that was launched on Tue, 18 Mar 2025 UTC via an ELECTRON launch vehicle from the Rocket Lab Launch Complex (RLLC). Payload-class satellites include a variety of spacecraft equipped with specific instruments for various scientific and technological missions. These include communications satellites like Starlink; space stations such as the ISS; scientific satellites like the Hubble; Earth observation satellites from companies like Planet Labs, Umbra, and HawkEye 360; GPS; miniature CubeSats for education and research; and military/defense satellites.

Loading next visibility...
Identifier
63303, 2025-056D
Orbit
SSO
Country
Flag of FRFR
Related business
Manufacturer
KINEIS
Mission
Operational Commercial Communications
Bus & Motor
CUBESAT 16U, Unknown motor
Mass
28 kg wet, 28 kg dry
Launch date (UTC)
2025-03-18 (1 year ago)
Launch vehicle
ELECTRON
Launch site
Rocket Lab Launch Complex (RLLC)
Object type
Payload
Rocket body
Debris
Shape & HBR
Box + 2 Pan + 1 Ant, 1.0 m
Radar Cross Section
0.229 m², Medium (>0.1 m² and < 1m²)

Expand to show TLE details & history
Last TLE update: 6 hours ago

TLE from 6 hours ago
0 KINEIS-4A
1 63303U 25056D   26124.19348162  .00002278  00000-0  36789-3 0  9997
2 63303  97.9104 249.4279 0002982  84.0772 276.0775 14.72312422 60652
Epoch: 2026-05-04T04:38Z
TLE epoch observation values (Epoch: 2026-05-04T04:38:36.811Z)
Latitude
-0.0001°
Longitude
-42.31165°
Altitude
656.485 km
Speed
7.529 km/s
True Right ascension
16h 37m 42s
True Declination
0° 00' 00"
Sunlit
Object was in full shadow at epoch
Visualization orbit readout
Latitude
Unknown
Longitude
Unknown
Altitude
Unknown
Speed
Unknown
Apparent Right ascension
Unknown
Apparent Declination
Unknown
Sunlit
N/A
Visualization observer readout
Local Sidereal Time
18:51:44
Azimuth
Unknown
Elevation
Unknown
Doppler factor
Unknown
Orbital elements
Apogee altitude
652.843 km
Perigee altitude
648.651 km
Semi-major axis
7,028.884 km
Eccentricity
0.0003
Inclination
97.9104°
RAAN
249.4279°
Arg. of periapsis
84.0772°
True anomaly
276.04352°
Mean anomaly
276.0775°
Eccentric anomaly
276.06051°
Mean motion
3.6831 °/min
Orbital period
97.74 mins
BSTAR
0.00036789
Loading maneuver chart data...
Computing Atmospheric mass density...
Loading historical data...
Loading historical data...
Loading historical data...
Loading historical data...
Loading historical data...
Loading historical data...
Loading historical data...

Documentation

Showing up to 5 results
|